[[{"header":{"parameterUnit":"m.s-1","parameterCategory":1,"la1":30.2991,"la2":30.254,"lo1":-89.0895,"lo2":-89.0444,"dy":0.0017,"dx":0.0017,"nx":28,"ny":28,"refTime":"2025-08-18T21:00:00:Z","depth":0,"parameterNumber":2,"parameterNumberName":"U-component_of_WINDS"},"data":[0,0,0,0,0,0,0,0,0,0,0,0,0,0,0,0,0,0,0,0,0,0,0,0,0,0,0,0,0,0,0,0,0,0,0,0,0,0,0,0,0,0,0,0,0,0,0,0,0,0,0,0,0,0,0,0,0,0,0.9206,0.9207,0,0.9289,0.929,0.9291,0.9321,0.932,0.932,0.932,0.9401,0.9403,0.9406,0,0,0,0,0,0,0,0,0,0,0,0,0,0.907,0.9072,0.9206,0.9207,0.9208,0.9289,0.929,0.9291,0.9321,0.932,0.932,0.932,0.94,0.9403,0.9406,0,0,0,0,0,0,0,0,0,0,0,0,0,0.9138,0.9073,0.9206,0.9233,0.9236,0.9289,0.929,0.9291,0.9321,0.932,0.932,0.9319,0.9399,0.9403,0.9406,0.9437,0,0,0.9417,0.9419,0,0,0,0,0,0,0,0,0.9135,0.9143,0.9228,0.9231,0.9235,0.9294,0.9272,0.934,0.9321,0.9289,0.932,0.9319,0.9365,0.9372,0.9388,0.9441,0.9444,0.9418,0.942,0.9421,0.9422,0,0,0,0,0,0,0,0.913,0.914,0.9239,0.9229,0.9233,0.9239,0.9249,0.9285,0.9328,0.9291,0.9294,0.9303,0.9367,0.9385,0.939,0.9446,0.9418,0.9421,0.9423,0.9424,0.9525,0.9526,0,0,0,0,0,0,0.9121,0.9136,0.9236,0.9241,0.9183,0.9242,0.9253,0.9275,0.9328,0.9336,0.9303,0.9304,0.9379,0.9386,0.9393,0.9432,0.9421,0.9425,0.9427,0.9525,0.9525,0.9526,0,0,0,0,0,0,0.9118,0.913,0.9233,0.9189,0.9203,0.9245,0.927,0.9277,0.9295,0.9337,0.9345,0.9313,0.9379,0.9388,0.9426,0.9435,0.9426,0.943,0.9524,0.9525,0.9526,0.9509,0,0,0,0,0,0,0.9114,0.9129,0.9142,0.9189,0.9205,0.9265,0.9271,0.9279,0.9301,0.9303,0.9349,0.9356,0.9379,0.942,0.9429,0.944,0.9433,0.9523,0.9524,0.9525,0.9509,0.9509,0.9509,0,0,0,0,0,0.9109,0.9134,0.9142,0.9154,0.9223,0.9266,0.9275,0.9302,0.9302,0.9315,0.9342,0.9354,0.9432,0.9424,0.9434,0.9446,0.9523,0.9524,0.9525,0.9509,0.9509,0.9509,0,0,0,0,0,0,0.9085,0.914,0.9151,0.9192,0.9224,0.9271,0.9288,0.9302,0.9334,0.9334,0.9366,0.9375,0.941,0.9432,0.9421,0.9477,0.9478,0.9481,0.9462,0.9463,0.9463,0.9457,0.9436,0,0,0,0,0,0.9085,0.9117,0.9163,0.9194,0.921,0.9246,0.9266,0.9284,0.9318,0.9332,0.9362,0.9393,0.9425,0.9445,0.9476,0.9512,0.9521,0.9525,0.9525,0.9525,0.9527,0.9546,0.9548,0.953,0.953,0.9529,0,0,0.9084,0.9118,0.9136,0.919,0.9217,0.9248,0.9257,0.929,0.9312,0.9336,0.9374,0.9396,0.9433,0.947,0.9487,0.9489,0.9534,0.9526,0.9526,0.9529,0.9547,0.9549,0.9551,0.953,0.953,0.953,0,0,0.9099,0.9128,0.9157,0.9184,0.9225,0.9249,0.9256,0.93,0.9316,0.9355,0.9373,0.9399,0.9453,0.9479,0.9499,0.952,0.9532,0.953,0.953,0.9548,0.955,0.9551,0.9558,0.956,0.9532,0.9532,0.9532,0,0.9093,0.9141,0.917,0.9201,0.9223,0.9247,0.9276,0.93,0.9349,0.9363,0.9364,0.9431,0.9458,0.95,0.9505,0.9521,0.9528,0.9525,0.9547,0.9549,0.9551,0.9558,0.956,0.9531,0.9531,0.9531,0.9531,0,0.913,0.9163,0.9181,0.9228,0.9253,0.9282,0.9314,0.9335,0.935,0.9373,0.9411,0.9443,0.9481,0.9492,0.9508,0.9536,0.9535,0.9542,0.9543,0.9551,0.9558,0.9561,0.953,0.953,0.9531,0.9531,0,0,0.9133,0.9195,0.9201,0.9222,0.9269,0.9294,0.9323,0.9361,0.9377,0.941,0.9434,0.9479,0.9484,0.9507,0.9525,0.954,0.9554,0.9545,0.9546,0.9545,0.9585,0.958,0.9583,0.9562,0.9563,0.9563,0.9582,0,0.9153,0.9209,0.9235,0.9278,0.9308,0.933,0.9355,0.9385,0.9407,0.9434,0.9457,0.9488,0.9494,0.9507,0.9524,0.9549,0.9563,0.9548,0.9584,0.9585,0.9574,0.9587,0.9582,0.9598,0.9585,0.9585,0.9586,0,0.9184,0.9217,0.9263,0.9304,0.9318,0.934,0.9376,0.9402,0.9436,0.9451,0.9475,0.9492,0.9522,0.9521,0.9562,0.9551,0.9568,0.9582,0.9583,0.9587,0.9586,0.9591,0.9604,0.9606,0.959,0.959,0.959,0,0.918,0.9236,0.927,0.9287,0.9337,0.9352,0.9373,0.9407,0.9427,0.9458,0.9471,0.9504,0.9522,0.9547,0.9572,0.9569,0.961,0.9611,0.9621,0.9621,0.9629,0.9628,0.9645,0.964,0.964,0.964,0.964,0,0.9199,0.9227,0.9269,0.929,0.9321,0.935,0.9378,0.9401,0.943,0.9455,0.9475,0.9498,0.953,0.9555,0.9575,0.9605,0.9613,0.9625,0.9629,0.9623,0.9621,0.9634,0.9633,0.9641,0.964,0.964,0.964,0,0.92,0.923,0.9269,0.9312,0.9324,0.9344,0.9381,0.9401,0.9423,0.9454,0.9463,0.9497,0.9529,0.9556,0.9597,0.961,0.9641,0.9647,0.963,0.9632,0.9641,0.9639,0.9666,0.967,0.9662,0.9662,0.9662,0,0.9211,0.9232,0.9278,0.9296,0.9317,0.9347,0.9368,0.9396,0.9417,0.9456,0.9471,0.9504,0.9532,0.9581,0.9609,0.964,0.9646,0.9653,0.9651,0.9643,0.9646,0.9644,0.9646,0.9653,0.9653,0.9653,0.9653,0,0.9225,0.9239,0.9269,0.9304,0.9328,0.9357,0.9386,0.9399,0.9433,0.9455,0.9488,0.9509,0.9551,0.9583,0.9617,0.9637,0.965,0.9654,0.9657,0.9651,0.964,0.9645,0.9629,0.9653,0.9653,0.9653,0.9653,0.9653,0.9231,0.925,0.9285,0.9318,0.9343,0.9369,0.939,0.9415,0.9443,0.948,0.9495,0.9528,0.9559,0.9606,0.9626,0.9651,0.9653,0.9659,0.966,0.9661,0.966,0.9636,0.9657,0.9657,0.9657,0.9657,0.9657,0,0.9246,0.9269,0.9299,0.9339,0.9364,0.9375,0.9407,0.9427,0.9456,0.9485,0.9512,0.9548,0.9579,0.9609,0.9641,0.9655,0.9662,0.9662,0.9661,0.9665,0.9656,0.965,0.9656,0.9656,0.9656,0.9656,0.9656,0.9656,0.9256,0.929,0.9307,0.9352,0.9375,0.9409,0.9426,0.9449,0.9472,0.9513,0.9539,0.9558,0.9587,0.9621,0.9649,0.9657,0.9667,0.9666,0.9675,0.9666,0.9666,0.9666,0.966,0.9668,0.9668,0.9682,0.9682,0.9682]},{"header":{"parameterUnit":"m.s-1","parameterCategory":1,"la1":30.2991,"la2":30.254,"lo1":-89.0895,"lo2":-89.0444,"dy":0.0017,"dx":0.0017,"nx":28,"ny":28,"refTime":"2025-08-18T21:00:00:Z","depth":0,"parameterNumber":3,"parameterNumberName":"V-component_of_WINDS"},"data":[0,0,0,0,0,0,0,0,0,0,0,0,0,0,0,0,0,0,0,0,0,0,0,0,0,0,0,0,0,0,0,0,0,0,0,0,0,0,0,0,0,0,0,0,0,0,0,0,0,0,0,0,0,0,0,0,0,0,2.2357,2.2357,0,2.2352,2.2352,2.2351,2.232,2.2319,2.2318,2.2317,2.2312,2.2312,2.2313,0,0,0,0,0,0,0,0,0,0,0,0,0,2.2341,2.2342,2.2357,2.2357,2.2357,2.2352,2.2352,2.2351,2.232,2.2319,2.2318,2.2317,2.2312,2.2312,2.2313,0,0,0,0,0,0,0,0,0,0,0,0,0,2.2343,2.2342,2.2357,2.2341,2.2339,2.2352,2.2352,2.2351,2.232,2.2319,2.2318,2.2317,2.2311,2.2312,2.2313,2.2341,0,0,2.2316,2.2316,0,0,0,0,0,0,0,0,2.2343,2.2344,2.2343,2.2342,2.234,2.2335,2.2344,2.2348,2.232,2.2327,2.2317,2.2316,2.2321,2.2321,2.2322,2.2341,2.2341,2.2316,2.2316,2.2317,2.2317,0,0,0,0,0,0,0,2.2343,2.2344,2.2355,2.2343,2.2341,2.2334,2.2333,2.2344,2.233,2.2327,2.2324,2.2324,2.2319,2.2321,2.2322,2.2341,2.2316,2.2316,2.2317,2.2317,2.2382,2.2383,0,0,0,0,0,0,2.2345,2.2344,2.2355,2.2355,2.2339,2.2335,2.2334,2.2338,2.233,2.2328,2.2325,2.2322,2.232,2.2321,2.2321,2.2353,2.2317,2.2317,2.2318,2.238,2.2382,2.2383,0,0,0,0,0,0,2.2345,2.2346,2.2356,2.2349,2.2349,2.2336,2.2341,2.2338,2.234,2.2329,2.2326,2.2329,2.2319,2.232,2.2336,2.2352,2.2318,2.2319,2.2379,2.2381,2.2383,2.2417,0,0,0,0,0,0,2.2345,2.2346,2.2357,2.2349,2.235,2.2371,2.2342,2.2339,2.2342,2.2338,2.2332,2.233,2.2319,2.2335,2.2337,2.2353,2.2319,2.2378,2.238,2.2382,2.2415,2.242,2.2425,0,0,0,0,0,2.2344,2.2367,2.2358,2.2359,2.2363,2.2372,2.2372,2.2358,2.2343,2.2353,2.2346,2.233,2.2351,2.2337,2.2339,2.2355,2.2376,2.2379,2.2382,2.2412,2.2419,2.2425,0,0,0,0,0,0,2.2378,2.2366,2.2355,2.2377,2.2375,2.2366,2.2379,2.2366,2.2369,2.2365,2.2348,2.2347,2.2366,2.2362,2.2348,2.2382,2.2361,2.2364,2.2383,2.239,2.2394,2.2395,2.232,0,0,0,0,0,2.2388,2.2396,2.2385,2.2405,2.2405,2.2392,2.2396,2.2385,2.2383,2.2382,2.2376,2.2375,2.2381,2.2385,2.239,2.2414,2.2412,2.2426,2.2431,2.2436,2.2438,2.245,2.2456,2.2392,2.2392,2.2392,0,0,2.2408,2.2403,2.2409,2.2412,2.2409,2.2418,2.2392,2.2403,2.2409,2.2384,2.2398,2.2394,2.2392,2.2412,2.242,2.2409,2.2456,2.2439,2.2442,2.2443,2.2454,2.246,2.2465,2.2394,2.2394,2.2393,0,0,2.245,2.2447,2.2463,2.2461,2.2458,2.2449,2.2453,2.2446,2.2442,2.2456,2.2437,2.2445,2.2456,2.2454,2.2455,2.2496,2.2481,2.2498,2.2524,2.2536,2.2541,2.2545,2.2559,2.2564,2.2501,2.2501,2.2501,0,2.2476,2.2488,2.2473,2.2484,2.2486,2.2463,2.2479,2.2478,2.2477,2.2479,2.2466,2.2479,2.2476,2.2495,2.2505,2.2507,2.251,2.2498,2.2541,2.2546,2.255,2.2563,2.2568,2.2503,2.2503,2.2503,2.2503,0,2.252,2.2529,2.2542,2.2541,2.2544,2.2557,2.2544,2.2549,2.2538,2.2531,2.2545,2.2541,2.2544,2.2548,2.2538,2.2566,2.2559,2.2545,2.2523,2.2558,2.257,2.2575,2.2506,2.2505,2.2505,2.2504,0,0,2.2582,2.2572,2.2577,2.2576,2.2571,2.2577,2.259,2.2593,2.2597,2.2597,2.2607,2.2616,2.2603,2.2604,2.2593,2.2603,2.2635,2.2588,2.2587,2.2596,2.2665,2.2675,2.2681,2.2626,2.2627,2.2627,2.2665,0,2.2622,2.2642,2.2629,2.2651,2.2659,2.2638,2.2649,2.2647,2.264,2.2645,2.2638,2.2645,2.2627,2.2627,2.2637,2.2629,2.2649,2.2627,2.2634,2.2635,2.2635,2.2688,2.2699,2.2734,2.2669,2.267,2.2671,0,2.267,2.2672,2.2695,2.2687,2.269,2.27,2.2701,2.2707,2.2704,2.2698,2.2699,2.2686,2.2698,2.2677,2.2692,2.2678,2.268,2.2677,2.2678,2.2678,2.2654,2.2688,2.2745,2.275,2.2678,2.2678,2.2677,0,2.2713,2.272,2.2735,2.2735,2.2727,2.2734,2.2731,2.2727,2.2729,2.2731,2.2732,2.2735,2.2736,2.2739,2.2726,2.2712,2.2743,2.2722,2.2739,2.2739,2.2746,2.2745,2.2803,2.2749,2.2749,2.2748,2.2748,0,2.2757,2.2772,2.2754,2.2763,2.2779,2.2763,2.2779,2.2774,2.2771,2.2778,2.2761,2.2768,2.2752,2.2757,2.2748,2.2762,2.2763,2.2759,2.2756,2.276,2.276,2.276,2.2757,2.275,2.275,2.2749,2.2749,0,2.2807,2.2795,2.281,2.2801,2.2799,2.2811,2.2803,2.2811,2.2803,2.2813,2.2814,2.2802,2.2808,2.2796,2.2801,2.2794,2.2814,2.2807,2.2814,2.2812,2.283,2.2828,2.289,2.2897,2.2838,2.2839,2.2839,0,2.2836,2.2847,2.2839,2.2842,2.284,2.2846,2.2849,2.2834,2.2837,2.2834,2.2842,2.2846,2.2849,2.2859,2.2851,2.2854,2.2847,2.2869,2.2848,2.2851,2.2847,2.2846,2.2846,2.2873,2.2873,2.2874,2.2875,0,2.2889,2.2882,2.2886,2.2887,2.289,2.2891,2.2891,2.2895,2.2879,2.2883,2.2888,2.289,2.2895,2.2899,2.29,2.2897,2.2883,2.2881,2.2885,2.2889,2.2892,2.289,2.2825,2.288,2.2879,2.2879,2.2879,2.2878,2.2928,2.2937,2.2932,2.2937,2.2934,2.2934,2.2941,2.2934,2.2938,2.294,2.2931,2.2938,2.2935,2.2935,2.2933,2.2939,2.2929,2.2935,2.2936,2.2938,2.294,2.2892,2.2939,2.2939,2.2939,2.2939,2.2938,0,2.2979,2.2975,2.2979,2.2979,2.2982,2.2969,2.2967,2.2971,2.2978,2.2976,2.2978,2.2984,2.2988,2.298,2.2983,2.2989,2.2983,2.299,2.2989,2.2989,2.2949,2.2945,2.2995,2.2995,2.2995,2.2995,2.2995,2.2995,2.3006,2.3019,2.3012,2.3024,2.302,2.3026,2.3027,2.3026,2.3024,2.3032,2.3035,2.3029,2.3025,2.3027,2.303,2.3027,2.3029,2.3039,2.3034,2.2997,2.2991,2.2986,2.2982,2.3039,2.3039,2.3072,2.3073,2.3073]}]]